This is the latest recevied weather packets stored in our database for station/object KM5R. If no packets are shown the sender has not sent any weather packets the latest 10 day(s).
| Time | Temp. | Humidity | Pressure | Rain* | Wind** | Luminosity | Snow |
|---|---|---|---|---|---|---|---|
| 1777909907 | 21.67° C | 65% | 1015.3 hPa | 0 mm | - | 521 W/m² | - |
| 1777909603 | 21.67° C | 66% | 1015.3 hPa | 0 mm | - | 457 W/m² | - |
| 1777909301 | 21.67° C | 67% | 1015.4 hPa | 0 mm | - | 361 W/m² | - |
| 1777908998 | 21.67° C | 67% | 1015.3 hPa | 0 mm | - | 396 W/m² | - |
| 1777908697 | 21.67° C | 66% | 1015.4 hPa | 0 mm | - | 461 W/m² | - |
| 1777908393 | 21.11° C | 67% | 1015.6 hPa | 0 mm | - | 559 W/m² | - |
| 1777908089 | 21.67° C | 66% | 1015.4 hPa | 0 mm | - | 467 W/m² | - |
| 1777907786 | 21.11° C | 68% | 1015.6 hPa | 0 mm | - | 469 W/m² | - |
| 1777907480 | 21.11° C | 67% | 1015.7 hPa | 0 mm | - | 382 W/m² | - |
| 1777907178 | 20.56° C | 69% | 1015.5 hPa | 0 mm | - | 414 W/m² | - |
| 1777906875 | 20.56° C | 69% | 1015 hPa | 0 mm | - | 418 W/m² | - |
| 1777906572 | 20° C | 70% | 1015.3 hPa | 0 mm | - | 325 W/m² | - |
| 1777906267 | 20° C | 70% | 1015.6 hPa | 0 mm | - | 252 W/m² | - |
| 1777905964 | 20° C | 71% | 1015.5 hPa | 0 mm | - | 241 W/m² | - |
| 1777905661 | 20° C | 70% | 1015.6 hPa | 0 mm | - | 265 W/m² | - |
| 1777905358 | 19.44° C | 72% | 1015.7 hPa | 0 mm | - | 368 W/m² | - |
| 1777905056 | 19.44° C | 72% | 1015.7 hPa | 0 mm | - | 340 W/m² | - |
| 1777904753 | 19.44° C | 72% | 1015.5 hPa | 0 mm | - | 353 W/m² | - |
| 1777904450 | 18.33° C | 75% | 1015.5 hPa | 0 mm | - | 296 W/m² | - |
| 1777904146 | 18.33° C | 75% | 1015.5 hPa | 0 mm | - | 280 W/m² | - |
| 1777903843 | 18.33° C | 75% | 1015.3 hPa | 0 mm | - | 260 W/m² | - |
| 1777903540 | 17.78° C | 75% | 1015.5 hPa | 0 mm | - | 218 W/m² | - |
| 1777903236 | 17.78° C | 75% | 1015.5 hPa | 0 mm | - | 168 W/m² | - |
| 1777902932 | 17.78° C | 76% | 1015.7 hPa | 0 mm | - | 214 W/m² | - |
| 1777902630 | 17.78° C | 76% | 1015.7 hPa | 0 mm | - | 228 W/m² | - |
* Rain latest hour (hover to see other rain measurements)
** Current wind speed in m/s (hover to see current wind gust speed)